FW2887 Weather Reports


time (UTC)temp
F
wind
direction
speed
knots
gust
knots
rain 1hr
in
rain 24hr
in
rain mn
in
humidity
%
barometer
mb
20260510190724 82 321 0.0 0.0 0.00 0.00 0.00 27 1014.5
20260510190225 83 321 0.0 0.0 0.00 0.00 0.00 28 1014.6
20260510185726 82 330 0.0 0.0 0.00 0.00 0.00 30 1014.5
20260510185237 82 307 0.0 0.0 0.00 0.00 0.00 32 1014.6
20260510184718 83 303 0.0 0.0 0.00 0.00 0.00 28 1014.7
20260510184220 83 303 0.0 0.0 0.00 0.00 0.00 29 1014.7
20260510183729 83 303 0.0 0.0 0.00 0.00 0.00 29 1014.7
20260510183214 83 47 0.0 0.0 0.00 0.00 0.00 29 1014.8
20260510182716 83 41 0.0 0.0 0.00 0.00 0.00 32 1014.9
20260510182225 82 39 0.0 0.0 0.00 0.00 0.00 28 1015.0
20260510181729 82 29 0.0 0.0 0.00 0.00 0.00 35 1015.0
20260510181233 81 355 0.0 0.0 0.00 0.00 0.00 28 1015.0
20260510180715 81 248 0.0 0.0 0.00 0.00 0.00 34 1015.0
20260510180245 82 248 0.0 0.0 0.00 0.00 0.00 31 1015.1
20260510175734 82 141 0.0 0.0 0.00 0.00 0.00 31 1015.1
20260510175216 82 161 0.0 0.0 0.00 0.00 0.00 28 1015.2
20260510174720 82 267 0.0 0.0 0.00 0.00 0.00 29 1015.2
20260510174231 83 359 0.0 0.0 0.00 0.00 0.00 33 1015.2
20260510173731 83 359 0.0 0.0 0.00 0.00 0.00 31 1015.2
20260510173258 82 345 0.0 0.0 0.00 0.00 0.00 32 1015.2
20260510172722 81 250 0.0 0.0 0.00 0.00 0.00 32 1015.2
20260510172224 81 240 0.0 0.0 0.00 0.00 0.00 31 1015.2
20260510171733 81 251 0.0 0.0 0.00 0.00 0.00 27 1015.2
20260510171217 82 25 0.0 0.0 0.00 0.00 0.00 28 1015.3
20260510170719 82 299 0.0 0.0 0.00 0.00 0.00 28 1015.3
20260510170221 81 349 0.0 0.0 0.00 0.00 0.00 27 1015.2
20260510165748 81 224 0.0 0.0 0.00 0.00 0.00 29 1015.2
20260510165235 81 42 0.0 0.0 0.00 0.00 0.00 27 1015.3
20260510164735 81 49 0.0 0.0 0.00 0.00 0.00 31 1015.5
20260510164242 81 45 0.0 0.0 0.00 0.00 0.00 28 1015.4
20260510163722 81 42 0.0 0.0 0.00 0.00 0.00 29 1015.4
20260510163249 81 64 0.0 0.0 0.00 0.00 0.00 33 1015.5
20260510162729 80 359 0.0 0.0 0.00 0.00 0.00 31 1015.5
20260510162238 80 32 0.0 0.0 0.00 0.00 0.00 36 1015.5
20260510161719 80 30 0.0 0.0 0.00 0.00 0.00 38 1015.5
20260510161226 80 338 0.0 0.0 0.00 0.00 0.00 42 1015.6
20260510160727 80 16 0.0 0.0 0.00 0.00 0.00 40 1015.6
20260510160228 79 49 0.0 0.0 0.00 0.00 0.00 41 1015.7
20260510155735 79 54 0.0 0.0 0.00 0.00 0.00 38 1015.8
20260510155237 78 342 0.0 0.0 0.00 0.00 0.00 45 1015.8
20260510154723 78 75 0.0 0.0 0.00 0.00 0.00 43 1015.9
20260510154227 78 235 0.0 0.0 0.00 0.00 0.00 44 1015.9
20260510153730 77 237 0.0 0.0 0.00 0.00 0.00 44 1016.1
20260510153238 77 240 0.0 0.0 0.00 0.00 0.00 40 1016.1
20260510152718 77 316 0.0 0.0 0.00 0.00 0.00 47 1016.2
20260510152220 77 242 0.0 0.0 0.00 0.00 0.00 45 1016.1
20260510151726 77 242 0.0 0.0 0.00 0.00 0.00 47 1016.0
20260510151229 76 299 0.0 2.6 0.00 0.00 0.00 49 1016.0
20260510150736 76 300 0.9 2.6 0.00 0.00 0.00 51 1016.0
20260510150215 75 326 0.0 2.6 0.00 0.00 0.00 48 1016.0
20260510145723 75 326 0.9 2.6 0.00 0.00 0.00 53 1015.9
20260510145223 75 278 0.0 1.7 0.00 0.00 0.00 53 1015.9
20260510144724 74 244 0.0 0.9 0.00 0.00 0.00 55 1016.0
20260510144231 74 41 0.0 0.0 0.00 0.00 0.00 57 1016.0
20260510143713 74 41 0.0 0.0 0.00 0.00 0.00 58 1015.8
20260510143213 73 26 0.0 0.0 0.00 0.00 0.00 57 1015.8
20260510142740 73 26 0.0 0.0 0.00 0.00 0.00 60 1015.9
20260510142219 73 26 0.0 0.0 0.00 0.00 0.00 60 1015.8
20260510141727 72 26 0.0 0.0 0.00 0.00 0.00 63 1015.8
20260510141230 72 26 0.0 0.0 0.00 0.00 0.00 62 1015.8
20260510140739 72 26 0.0 0.0 0.00 0.00 0.00 63 1015.8
20260510140240 72 27 0.0 0.0 0.00 0.00 0.00 61 1015.9
20260510135726 71 27 0.0 3.5 0.00 0.00 0.00 65 1015.9
20260510135226 71 27 0.9 3.5 0.00 0.00 0.00 62 1015.9
20260510134734 70 36 1.7 3.5 0.00 0.00 0.00 62 1016.0
20260510134216 70 38 0.9 2.6 0.00 0.00 0.00 65 1015.9
20260510133716 69 30 1.7 2.6 0.00 0.00 0.00 65 1015.9
20260510133222 69 35 0.0 1.7 0.00 0.00 0.00 70 1015.9
20260510132742 68 26 0.0 0.9 0.00 0.00 0.00 73 1015.8
20260510132224 68 303 0.0 0.9 0.00 0.00 0.00 77 1015.8
20260510131722 67 303 0.0 0.0 0.00 0.00 0.00 79 1015.7
20260510131231 66 303 0.0 1.7 0.00 0.00 0.00 81 1015.8
20260510130729 66 303 0.0 2.6 0.00 0.00 0.00 82 1015.7
20260510130253 66 293 0.0 1.7 0.00 0.00 0.00 85 1015.6
20260510125730 65 247 0.0 0.0 0.00 0.00 0.00 86 1015.5
20260510125238 65 245 0.0 0.0 0.00 0.00 0.00 88 1015.5
20260510124719 64 245 0.0 0.0 0.00 0.00 0.00 89 1015.4
20260510124220 64 245 0.0 0.0 0.00 0.00 0.00 89 1015.2
20260510123748 63 245 0.0 0.0 0.00 0.00 0.00 90 1015.2
20260510123230 63 245 0.0 0.0 0.00 0.00 0.00 91 1015.2
20260510122739 63 243 0.0 0.0 0.00 0.00 0.00 91 1015.1
20260510122219 62 243 0.0 0.0 0.00 0.00 0.00 92 1015.2
20260510121720 62 243 0.0 0.0 0.00 0.00 0.00 92 1015.1
20260510121222 61 243 0.0 0.0 0.00 0.00 0.00 91 1015.1
20260510120750 61 243 0.0 0.0 0.00 0.00 0.00 91 1015.1
20260510120237 61 243 0.0 0.0 0.00 0.00 0.00 91 1015.0
20260510115718 61 242 0.0 0.0 0.00 0.00 0.00 91 1014.9
20260510115220 61 321 0.0 0.0 0.00 0.00 0.00 91 1014.9
20260510114728 61 321 0.0 0.0 0.00 0.00 0.00 91 1014.9
20260510114231 61 321 0.0 0.0 0.00 0.00 0.00 91 1014.8
20260510113719 61 321 0.0 0.0 0.00 0.00 0.00 91 1014.8
20260510113220 61 321 0.0 0.0 0.00 0.00 0.00 91 1014.7
20260510112722 61 238 0.0 0.0 0.00 0.00 0.00 91 1014.7
20260510112229 61 242 0.0 0.0 0.00 0.00 0.00 91 1014.6
20260510111728 60 242 0.0 0.0 0.00 0.00 0.00 91 1014.5
20260510111237 60 242 0.0 0.0 0.00 0.00 0.00 91 1014.4
20260510110719 60 242 0.0 0.0 0.00 0.00 0.00 91 1014.4
20260510110240 60 242 0.0 0.0 0.00 0.00 0.00 91 1014.2
20260510105725 60 243 0.0 0.0 0.00 0.00 0.00 91 1014.1
20260510105223 60 243 0.0 0.0 0.00 0.00 0.00 91 1014.1
20260510104726 60 243 0.0 0.0 0.00 0.00 0.00 91 1014.0
20260510104226 60 243 0.0 0.0 0.00 0.00 0.00 91 1013.9
20260510103752 60 243 0.0 0.0 0.00 0.00 0.00 91 1013.8
20260510103212 60 243 0.0 0.0 0.00 0.00 0.00 91 1013.7
20260510102712 60 243 0.0 0.0 0.00 0.00 0.00 90 1013.5
20260510102241 60 243 0.0 0.0 0.00 0.00 0.00 90 1013.5
20260510101721 60 243 0.0 0.0 0.00 0.00 0.00 90 1013.5
20260510101229 60 243 0.0 0.0 0.00 0.00 0.00 90 1013.4
20260510100731 60 243 0.0 0.0 0.00 0.00 0.00 90 1013.3
20260510100241 60 243 0.0 0.0 0.00 0.00 0.00 90 1013.3
20260510095721 60 243 0.0 0.0 0.00 0.00 0.00 90 1013.2
20260510095222 60 243 0.0 0.0 0.00 0.00 0.00 90 1013.1
20260510094752 61 243 0.0 0.0 0.00 0.00 0.00 90 1013.0
20260510094237 61 243 0.0 0.0 0.00 0.00 0.00 90 1013.0
20260510093718 61 243 0.0 0.0 0.00 0.00 0.00 90 1013.0
20260510093221 61 243 0.0 0.0 0.00 0.00 0.00 90 1012.9
20260510092721 61 243 0.0 0.0 0.00 0.00 0.00 90 1012.9
20260510092249 61 321 0.0 0.0 0.00 0.00 0.00 89 1012.9
20260510091737 61 321 0.0 0.0 0.00 0.00 0.00 89 1012.9
20260510091219 61 243 0.0 0.0 0.00 0.00 0.00 89 1012.8
20260510090719 61 243 0.0 0.0 0.00 0.00 0.00 89 1012.8
20260510090222 61 243 0.0 0.0 0.00 0.00 0.00 89 1012.8
20260510085730 61 243 0.0 0.0 0.00 0.00 0.00 89 1012.7
20260510085214 61 243 0.0 0.0 0.00 0.00 0.00 89 1012.5
20260510084717 61 243 0.0 0.0 0.00 0.00 0.00 89 1012.5
20260510084227 61 243 0.0 0.0 0.00 0.00 0.00 89 1012.4
20260510083730 61 243 0.0 0.0 0.00 0.00 0.00 89 1012.4
20260510083213 61 243 0.0 0.0 0.00 0.00 0.00 89 1012.5
20260510082722 62 243 0.0 0.0 0.00 0.00 0.00 89 1012.4
20260510082225 62 243 0.0 0.0 0.00 0.00 0.00 89 1012.4
20260510081727 62 243 0.0 0.0 0.00 0.00 0.00 88 1012.3
20260510081236 62 243 0.0 0.0 0.00 0.00 0.00 88 1012.4
20260510080720 62 243 0.0 0.0 0.00 0.00 0.00 88 1012.3
20260510080221 62 243 0.0 0.0 0.00 0.00 0.00 88 1012.4
20260510075728 62 243 0.0 0.0 0.00 0.00 0.00 88 1012.4
20260510075250 62 243 0.0 0.0 0.00 0.00 0.00 88 1012.4
20260510074718 62 243 0.0 0.0 0.00 0.00 0.00 88 1012.3
20260510074218 62 243 0.0 0.0 0.00 0.00 0.00 88 1012.2
20260510073749 62 243 0.0 0.0 0.00 0.00 0.00 88 1012.2
20260510073231 62 243 0.0 0.0 0.00 0.00 0.00 88 1012.1
20260510072732 62 243 0.0 0.0 0.00 0.00 0.00 88 1012.1
20260510072217 62 243 0.0 0.0 0.00 0.00 0.00 88 1012.1
20260510071719 62 243 0.0 0.0 0.00 0.00 0.00 88 1012.1
20260510071247 62 243 0.0 0.0 0.00 0.00 0.00 88 1012.2
20260510070728 62 258 0.0 0.0 0.00 0.00 0.00 87 1012.2
20260510070212 62 258 0.0 0.0 0.00 0.00 0.00 87 1012.2
20260510065721 62 258 0.0 0.0 0.00 0.00 0.00 87 1012.2
20260510065225 62 258 0.0 0.0 0.00 0.00 0.00 87 1012.2
20260510064726 63 258 0.0 0.0 0.00 0.00 0.00 86 1012.1
20260510064233 63 258 0.0 0.0 0.00 0.00 0.00 86 1012.1
20260510063716 63 258 0.0 0.0 0.00 0.00 0.00 86 1012.1
20260510063244 63 258 0.0 0.0 0.00 0.00 0.00 86 1012.0
20260510062725 63 258 0.0 0.0 0.00 0.00 0.00 86 1011.9
20260510062230 63 258 0.0 0.0 0.00 0.00 0.00 86 1011.8
20260510061712 63 258 0.0 0.0 0.00 0.00 0.00 86 1011.9
20260510061240 63 258 0.0 0.0 0.00 0.00 0.00 86 1012.1
20260510060729 63 258 0.0 0.0 0.00 0.00 0.00 86 1012.1
20260510060212 63 258 0.0 0.0 0.00 0.00 0.00 86 1012.3
20260510055715 63 258 0.0 0.0 0.00 0.00 0.00 86 1012.3
20260510055244 63 258 0.0 0.0 0.00 0.00 0.00 86 1012.3
20260510054725 63 259 0.0 0.0 0.00 0.00 0.00 86 1012.3
20260510054236 63 286 0.0 0.0 0.00 0.00 0.00 86 1012.3
20260510053716 63 256 0.0 4.3 0.00 0.00 0.00 86 1012.4
20260510053219 63 265 0.0 4.3 0.00 0.00 0.00 86 1012.5
20260510052721 63 243 0.0 0.0 0.00 0.00 0.00 86 1012.4
20260510052228 63 250 0.0 0.0 0.00 0.00 0.00 86 1012.5
20260510051730 63 246 0.0 0.0 0.00 0.00 0.00 86 1012.5
20260510051215 63 244 0.0 0.0 0.00 0.00 0.00 87 1012.5
20260510050724 63 245 0.0 0.0 0.00 0.00 0.00 87 1012.6
20260510050234 63 250 0.0 0.0 0.00 0.00 0.00 87 1012.5
20260510045712 63 249 0.0 2.6 0.00 0.00 0.00 87 1012.6
20260510045216 63 249 0.9 5.2 0.00 0.00 0.00 87 1012.6
20260510044722 63 242 0.0 7.0 0.00 0.00 0.00 87 1012.8
20260510044227 63 242 1.7 7.0 0.00 0.00 0.00 87 1012.8
20260510043728 63 265 0.0 0.0 0.00 0.00 0.00 87 1012.5
20260510043235 63 251 0.0 0.0 0.00 0.00 0.00 87 1012.6
20260510042717 63 252 0.0 0.0 0.00 0.00 0.00 87 1012.5
20260510042218 63 251 0.0 4.3 0.00 0.00 0.00 87 1012.5
20260510041720 63 252 0.0 4.3 0.00 0.00 0.00 87 1012.6
20260510041247 63 180 0.0 0.0 0.00 0.00 0.00 86 1012.5
20260510040733 63 236 0.0 0.0 0.00 0.00 0.00 86 1012.6
20260510040213 63 249 0.0 0.0 0.00 0.00 0.00 86 1012.5
20260510035714 63 249 0.0 0.0 0.00 0.00 0.00 86 1012.5
20260510035245 63 249 0.0 0.0 0.00 0.00 0.00 86 1012.5
20260510034726 63 250 0.0 0.0 0.00 0.00 0.00 86 1012.5
20260510034235 63 240 0.0 0.0 0.00 0.00 0.00 86 1012.5
20260510033715 63 263 0.0 0.0 0.00 0.00 0.00 86 1012.5
20260510033236 63 232 0.0 3.5 0.00 0.00 0.00 86 1012.4
20260510032742 63 235 0.0 3.5 0.00 0.00 0.00 86 1012.4
20260510032228 63 249 0.0 0.0 0.00 0.00 0.00 86 1012.4
20260510031728 63 259 0.0 0.0 0.00 0.00 0.00 86 1012.3
20260510031230 63 260 0.0 0.9 0.00 0.00 0.00 86 1012.4
20260510030739 63 258 0.0 1.7 0.00 0.00 0.00 86 1012.3
20260510030217 63 230 0.0 1.7 0.00 0.00 0.00 86 1012.3
20260510025723 63 235 0.0 3.5 0.00 0.00 0.00 86 1012.3
20260510025229 63 235 0.9 3.5 0.00 0.00 0.00 86 1012.2
20260510024730 63 272 0.0 0.0 0.00 0.00 0.00 86 1012.2
20260510024237 64 274 0.0 0.0 0.00 0.00 0.00 86 1012.2
20260510023738 64 85 0.0 0.0 0.00 0.00 0.00 85 1012.3
20260510023223 64 85 0.0 0.0 0.00 0.00 0.00 85 1012.2
20260510022725 64 85 0.0 0.0 0.00 0.00 0.00 85 1012.2
20260510022232 64 85 0.0 0.0 0.00 0.00 0.00 85 1012.2
20260510021711 64 85 0.0 0.0 0.00 0.00 0.00 85 1012.1
20260510021213 64 85 0.0 0.0 0.00 0.00 0.00 84 1012.1
20260510020740 64 307 0.0 0.0 0.00 0.00 0.00 84 1012.2
20260510020219 64 307 0.0 0.0 0.00 0.00 0.00 84 1012.1
20260510015726 64 307 0.0 0.0 0.00 0.00 0.00 84 1012.1
20260510015228 64 307 0.0 0.0 0.00 0.00 0.00 83 1012.0
20260510014730 64 307 0.0 0.0 0.00 0.00 0.00 83 1012.0
20260510014212 65 307 0.0 0.0 0.00 0.00 0.00 82 1011.9
20260510013742 65 307 0.0 0.0 0.00 0.00 0.00 82 1011.7
20260510013228 65 307 0.0 0.0 0.00 0.00 0.00 82 1011.6
20260510012731 65 307 0.0 0.0 0.00 0.00 0.00 81 1011.6
20260510012215 66 307 0.0 0.0 0.00 0.00 0.00 81 1011.4
20260510011742 66 307 0.0 0.0 0.00 0.00 0.00 80 1011.3
20260510011222 66 307 0.0 0.0 0.00 0.00 0.00 80 1011.3
20260510010731 66 307 0.0 0.0 0.00 0.00 0.00 79 1011.2
20260510010211 66 307 0.0 0.0 0.00 0.00 0.00 79 1011.2
20260510005732 66 307 0.0 0.0 0.00 0.00 0.00 78 1011.1
20260510005240 67 307 0.0 0.0 0.00 0.00 0.00 78 1011.2
20260510004721 67 307 0.0 0.0 0.00 0.00 0.00 78 1011.2
20260510004229 67 307 0.0 0.0 0.00 0.00 0.00 77 1011.2
20260510003750 67 307 0.0 0.0 0.00 0.00 0.00 75 1011.2
20260510003237 68 307 0.0 0.0 0.00 0.00 0.00 75 1011.2
20260510002721 68 307 0.0 0.0 0.00 0.00 0.00 75 1011.3
20260510002226 68 307 0.0 0.0 0.00 0.00 0.00 75 1011.2
20260510001728 68 307 0.0 0.0 0.00 0.00 0.00 75 1011.2
20260510001229 68 307 0.0 0.0 0.00 0.00 0.00 74 1011.2
20260510000716 69 307 0.0 0.0 0.00 0.00 0.00 73 1011.0
20260510000218 69 307 0.0 0.0 0.00 0.00 0.00 73 1011.0
20260509235721 69 307 0.0 0.0 0.00 0.00 0.00 73 1010.9
20260509235229 69 307 0.0 0.0 0.00 0.00 0.00 73 1010.9
20260509234757 69 307 0.0 0.0 0.00 0.00 0.00 73 1010.8
20260509234218 70 307 0.0 0.0 0.00 0.00 0.00 72 1010.6
20260509233717 70 307 0.0 0.0 0.00 0.00 0.00 71 1010.5
20260509233220 70 307 0.0 0.0 0.00 0.00 0.00 72 1010.5
20260509232729 70 307 0.0 0.0 0.00 0.00 0.00 72 1010.7
20260509232230 70 307 0.0 0.0 0.00 0.00 0.00 70 1010.6
20260509231711 70 307 0.0 0.0 0.00 0.00 0.00 71 1010.5
20260509231221 71 307 0.0 0.0 0.00 0.00 0.00 70 1010.4
20260509230722 71 307 0.0 0.0 0.00 0.00 0.00 69 1010.4
20260509230230 71 307 0.0 0.0 0.00 0.00 0.00 70 1010.4
20260509225731 71 333 0.0 0.0 0.00 0.00 0.00 67 1010.4
20260509225211 71 333 0.0 0.0 0.00 0.00 0.00 66 1010.2
20260509224712 71 333 0.0 0.0 0.00 0.00 0.00 66 1010.2
20260509224218 71 256 0.0 0.0 0.00 0.00 0.00 66 1010.3
20260509223722 72 264 0.0 0.9 0.00 0.00 0.00 65 1010.3
20260509223228 72 253 0.0 0.9 0.00 0.00 0.00 66 1010.4
20260509222711 72 257 0.0 0.0 0.00 0.00 0.00 66 1010.4
20260509222232 72 265 0.0 0.0 0.00 0.00 0.00 65 1010.5
20260509221713 72 260 0.0 0.0 0.00 0.00 0.00 66 1010.4
20260509221221 72 260 0.0 0.0 0.00 0.00 0.00 65 1010.4
20260509220723 72 233 0.0 0.0 0.00 0.00 0.00 65 1010.5
20260509220230 72 234 0.0 5.2 0.00 0.00 0.00 65 1010.4
20260509215752 72 183 3.5 5.2 0.00 0.00 0.00 65 1010.4
20260509215217 72 198 0.0 0.0 0.00 0.00 0.00 67 1010.4
20260509214737 72 355 0.0 0.0 0.00 0.00 0.00 65 1010.4
20260509214222 72 287 0.0 0.0 0.00 0.00 0.00 65 1010.4
20260509213732 72 260 0.0 0.0 0.00 0.00 0.00 65 1010.4
20260509213232 72 252 0.0 0.0 0.00 0.00 0.00 66 1010.3
20260509212715 72 234 0.0 0.0 0.00 0.00 0.00 65 1010.1
20260509212222 72 159 0.0 0.0 0.00 0.00 0.00 64 1010.2
20260509211751 72 209 0.0 0.0 0.00 0.00 0.00 63 1010.1
20260509211250 72 252 0.0 9.6 0.00 0.00 0.00 65 1010.1
20260509210738 72 222 2.6 9.6 0.00 0.00 0.00 63 1010.0
20260509210218 72 279 1.7 6.1 0.00 0.00 0.00 63 1010.1
20260509205722 72 234 0.0 3.5 0.00 0.00 0.00 62 1010.2
20260509205231 72 246 0.9 3.5 0.00 0.00 0.00 63 1010.2
20260509204731 72 262 0.0 0.0 0.00 0.00 0.00 64 1010.2
20260509204232 72 254 0.0 0.0 0.00 0.00 0.00 64 1010.3
20260509203716 72 222 0.0 0.0 0.00 0.00 0.00 65 1010.2
20260509203222 71 253 0.0 0.0 0.00 0.00 0.00 65 1010.2
20260509202751 72 208 0.0 0.0 0.00 0.00 0.00 64 1010.2
20260509202252 72 254 0.0 6.1 0.00 0.00 0.00 64 1010.1
20260509201714 72 247 0.0 7.0 0.00 0.00 0.00 63 1010.2
20260509201221 72 243 0.0 7.0 0.00 0.00 0.00 62 1010.2
20260509200750 72 227 1.7 6.1 0.00 0.00 0.00 62 1010.1
20260509200229 72 251 0.0 1.7 0.00 0.00 0.00 62 1010.3
20260509195730 71 258 0.0 10.4 0.00 0.00 0.00 61 1010.4
20260509195238 72 258 3.5 10.4 0.00 0.00 0.00 60 1010.5
20260509194720 72 166 0.0 0.0 0.00 0.00 0.00 62 1010.6
20260509194222 71 193 0.0 0.0 0.00 0.00 0.00 62 1010.6
20260509193728 71 250 0.0 0.0 0.00 0.00 0.00 60 1010.6
20260509193230 71 232 0.0 3.5 0.00 0.00 0.00 60 1010.7
20260509192732 72 228 0.9 3.5 0.00 0.00 0.00 59 1010.7
20260509192223 72 222 0.0 6.1 0.00 0.00 0.00 58 1010.8
20260509191726 72 271 1.7 5.2 0.00 0.00 0.00 57 1010.8
20260509191227 73 249 0.0 5.2 0.00 0.00 0.00 56 1010.7